EW5239 Weather Reports


Display with metric or nautical units.
time (UTC)temp
F
wind
direction
speed
MPH
gust
MPH
rain 1hr
in
rain 24hr
in
rain mn
in
humidity
%
barometer
mb
20260510160506 67 223 2.0 4.0 0.00 0.00 0.00 44 1010.2
20260510160503 67 170 3.0 6.0 0.00 0.00 0.00 40 1012.0
20260510160008 67 183 3.0 6.0 0.00 0.00 0.00 39 1012.0
20260510155506 66 191 3.0 4.0 0.00 0.00 0.00 43 1010.2
20260510155503 67 165 3.0 6.0 0.00 0.00 0.00 40 1012.1
20260510155006 66 168 4.0 8.0 0.00 0.00 0.00 43 1010.3
20260510155002 67 159 4.0 6.0 0.00 0.00 0.00 39 1012.1
20260510154506 66 156 5.0 8.0 0.00 0.00 0.00 43 1010.3
20260510154006 66 125 5.0 8.0 0.00 0.00 0.00 42 1010.4
20260510153503 67 91 4.0 6.0 0.00 0.00 0.00 40 1012.3
20260510153006 66 110 6.0 8.0 0.00 0.00 0.00 42 1010.4
20260510153003 67 97 5.0 8.0 0.00 0.00 0.00 39 1012.3
20260510152506 67 111 6.0 8.0 0.00 0.00 0.00 42 1010.5
20260510152003 67 106 6.0 8.0 0.00 0.00 0.00 40 1012.5
20260510151506 67 133 5.0 8.0 0.00 0.00 0.00 42 1010.6
20260510151502 67 115 5.0 8.0 0.00 0.00 0.00 39 1012.5
20260510151002 67 154 4.0 8.0 0.00 0.00 0.00 39 1012.6
20260510150506 67 158 4.0 8.0 0.00 0.00 0.00 42 1010.6
20260510150503 67 166 4.0 8.0 0.00 0.00 0.00 39 1012.8
20260510150008 67 136 5.0 8.0 0.00 0.00 0.00 38 1012.7
20260510150006 67 113 5.0 9.0 0.00 0.00 0.00 42 1010.7
20260510145507 67 105 5.0 9.0 0.00 0.00 0.00 40 1010.7
20260510145503 67 110 5.0 7.0 0.00 0.00 0.00 38 1012.9
20260510145006 67 119 5.0 8.0 0.00 0.00 0.00 40 1010.9
20260510145002 67 129 4.0 7.0 0.00 0.00 0.00 39 1012.7
20260510144506 67 113 4.0 6.0 0.00 0.00 0.00 40 1010.8
20260510144502 67 119 4.0 5.0 0.00 0.00 0.00 38 1012.8
20260510144006 67 145 4.0 7.0 0.00 0.00 0.00 39 1010.8
20260510144003 67 125 4.0 7.0 0.00 0.00 0.00 37 1013.1
20260510143506 67 159 5.0 7.0 0.00 0.00 0.00 40 1010.9
20260510143503 67 146 4.0 7.0 0.00 0.00 0.00 36 1012.9
20260510143002 67 82 4.0 7.0 0.00 0.00 0.00 39 1013.1
20260510142506 67 142 4.0 7.0 0.00 0.00 0.00 40 1011.1
20260510142503 67 104 5.0 7.0 0.00 0.00 0.00 37 1013.1
20260510142006 67 213 3.0 6.0 0.00 0.00 0.00 41 1011.1
20260510142003 67 217 3.0 5.0 0.00 0.00 0.00 37 1013.2
20260510141506 67 110 4.0 7.0 0.00 0.00 0.00 42 1011.2
20260510141502 67 230 3.0 4.0 0.00 0.00 0.00 38 1013.2
20260510141006 67 93 7.0 7.0 0.00 0.00 0.00 41 1011.4
20260510141002 67 131 4.0 7.0 0.00 0.00 0.00 38 1013.4
20260510140506 67 98 6.0 7.0 0.00 0.00 0.00 42 1011.3
20260510140502 67 112 5.0 7.0 0.00 0.00 0.00 38 1013.4
20260510140008 67 96 4.0 7.0 0.00 0.00 0.00 40 1013.3
20260510135506 67 107 5.0 8.0 0.00 0.00 0.00 42 1011.4
20260510135502 67 71 4.0 6.0 0.00 0.00 0.00 39 1013.3
20260510135006 68 107 6.0 11.0 0.00 0.00 0.00 42 1011.5
20260510135003 67 90 5.0 9.0 0.00 0.00 0.00 40 1013.3
20260510134505 68 359 5.0 11.0 0.00 0.00 0.00 41 1011.5
20260510134503 67 57 4.0 9.0 0.00 0.00 0.00 41 1013.6
20260510134007 68 342 3.0 5.0 0.00 0.00 0.00 41 1011.6
20260510133506 67 280 3.0 6.0 0.00 0.00 0.00 42 1011.7
20260510133503 67 230 3.0 6.0 0.00 0.00 0.00 39 1013.7
20260510133006 67 277 4.0 6.0 0.00 0.00 0.00 42 1011.8
20260510133002 66 227 3.0 6.0 0.00 0.00 0.00 40 1013.6
20260510132506 67 252 4.0 8.0 0.00 0.00 0.00 42 1011.7
20260510131506 66 212 5.0 7.0 0.00 0.00 0.00 42 1011.8
20260510131502 66 214 5.0 7.0 0.00 0.00 0.00 40 1014.1
20260510131006 66 210 6.0 10.0 0.00 0.00 0.00 41 1011.9
20260510130506 66 224 6.0 10.0 0.00 0.00 0.00 42 1012.0
20260510130503 66 237 6.0 9.0 0.00 0.00 0.00 40 1014.1
20260510130011 65 288 5.0 9.0 0.00 0.00 0.00 40 1014.2
20260510130006 66 231 5.0 10.0 0.00 0.00 0.00 43 1012.2
20260510125502 65 337 3.0 6.0 0.00 0.00 0.00 41 1014.0
20260510125003 65 2 4.0 6.0 0.00 0.00 0.00 40 1014.3
20260510124506 65 315 4.0 7.0 0.00 0.00 0.00 45 1012.5
20260510124006 65 266 4.0 7.0 0.00 0.00 0.00 45 1012.3
20260510123506 65 283 5.0 7.0 0.00 0.00 0.00 45 1012.5
20260510123502 65 267 4.0 7.0 0.00 0.00 0.00 40 1014.6
20260510123006 65 313 4.0 6.0 0.00 0.00 0.00 46 1012.5
20260510122506 65 143 3.0 4.0 0.00 0.00 0.00 45 1012.6
20260510122503 66 146 2.0 4.0 0.00 0.00 0.00 44 1014.5
20260510122006 65 193 3.0 6.0 0.00 0.00 0.00 45 1012.5
20260510122003 65 171 3.0 5.0 0.00 0.00 0.00 42 1014.5
20260510121502 65 283 5.0 11.0 0.00 0.00 0.00 42 1014.6
20260510121005 65 1 8.0 10.0 0.00 0.00 0.00 46 1012.8
20260510121003 65 314 9.0 11.0 0.00 0.00 0.00 41 1014.7
20260510120502 65 313 9.0 11.0 0.00 0.00 0.00 41 1014.8
20260510120008 65 302 5.0 11.0 0.00 0.00 0.00 41 1015.2
20260510115505 64 293 5.0 8.0 0.00 0.00 0.00 45 1013.0
20260510115503 65 287 5.0 8.0 0.00 0.00 0.00 41 1015.0
20260510115006 64 296 5.0 8.0 0.00 0.00 0.00 46 1013.1
20260510114506 64 339 4.0 7.0 0.00 0.00 0.00 46 1013.0
20260510114503 65 356 4.0 6.0 0.00 0.00 0.00 44 1014.9
20260510114002 65 1 3.0 6.0 0.00 0.00 0.00 44 1015.0
20260510113506 64 271 5.0 11.0 0.00 0.00 0.00 48 1013.2
20260510113006 64 263 6.0 11.0 0.00 0.00 0.00 48 1013.4
20260510113003 65 276 6.0 11.0 0.00 0.00 0.00 45 1015.4
20260510112506 64 224 6.0 10.0 0.00 0.00 0.00 49 1013.4
20260510112006 63 247 5.0 10.0 0.00 0.00 0.00 49 1013.5
20260510112003 64 278 5.0 9.0 0.00 0.00 0.00 45 1015.3
20260510111506 63 223 5.0 8.0 0.00 0.00 0.00 48 1013.6
20260510111005 63 203 7.0 10.0 0.00 0.00 0.00 48 1013.7
20260510111002 63 123 7.0 9.0 0.00 0.00 0.00 42 1015.3
20260510110506 63 354 6.0 10.0 0.00 0.00 0.00 50 1013.7
20260510110503 64 18 6.0 9.0 0.00 0.00 0.00 45 1015.5
20260510110008 63 359 5.0 7.0 0.00 0.00 0.00 46 1015.5
20260510110006 63 348 5.0 7.0 0.00 0.00 0.00 51 1013.8
20260510105506 62 323 5.0 7.0 0.00 0.00 0.00 52 1013.8
20260510105503 62 351 4.0 7.0 0.00 0.00 0.00 50 1015.8
20260510105006 61 284 4.0 6.0 0.00 0.00 0.00 52 1013.9
20260510104506 61 261 4.0 6.0 0.00 0.00 0.00 52 1013.9
20260510104006 61 262 3.0 5.0 0.00 0.00 0.00 54 1014.0
20260510103506 61 289 5.0 9.0 0.00 0.00 0.00 52 1014.0
20260510103503 61 279 4.0 8.0 0.00 0.00 0.00 49 1016.1
20260510103006 61 259 7.0 9.0 0.00 0.00 0.00 52 1014.0
20260510103002 61 259 6.0 8.0 0.00 0.00 0.00 49 1015.8
20260510102006 62 201 4.0 6.0 0.00 0.00 0.00 52 1014.3
20260510101506 62 181 5.0 8.0 0.00 0.00 0.00 51 1014.2
20260510101502 62 162 4.0 7.0 0.00 0.00 0.00 46 1016.4
20260510101006 62 142 7.0 8.0 0.00 0.00 0.00 49 1014.4
20260510101002 63 139 6.0 7.0 0.00 0.00 0.00 43 1016.4
20260510100506 62 138 6.0 8.0 0.00 0.00 0.00 52 1014.3
20260510100503 63 129 6.0 7.0 0.00 0.00 0.00 45 1016.2
20260510100008 63 122 4.0 7.0 0.00 0.00 0.00 45 1016.3
20260510095503 63 209 4.0 7.0 0.00 0.00 0.00 44 1016.3
20260510095006 62 187 5.0 8.0 0.00 0.00 0.00 52 1014.6
20260510095002 63 175 5.0 8.0 0.00 0.00 0.00 44 1016.6
20260510094506 62 231 4.0 8.0 0.00 0.00 0.00 51 1014.6
20260510094503 64 135 4.0 8.0 0.00 0.00 0.00 44 1016.4
20260510094006 62 36 4.0 6.0 0.00 0.00 0.00 49 1014.8
20260510094002 63 56 4.0 5.0 0.00 0.00 0.00 44 1016.5
20260510093506 62 119 4.0 6.0 0.00 0.00 0.00 51 1014.8
20260510093502 63 116 4.0 5.0 0.00 0.00 0.00 46 1016.5
20260510093006 61 147 5.0 6.0 0.00 0.00 0.00 52 1014.8
20260510093003 62 174 4.0 6.0 0.00 0.00 0.00 47 1016.4
20260510092506 61 229 5.0 7.0 0.00 0.00 0.00 53 1014.9
20260510092502 62 223 4.0 7.0 0.00 0.00 0.00 50 1016.4
20260510092006 61 247 4.0 7.0 0.00 0.00 0.00 52 1014.9
20260510091506 61 214 5.0 7.0 0.00 0.00 0.00 53 1014.9
20260510091503 61 210 5.0 7.0 0.00 0.00 0.00 49 1016.6
20260510091002 61 200 5.0 9.0 0.00 0.00 0.00 52 1016.6
20260510090506 60 206 5.0 10.0 0.00 0.00 0.00 55 1014.7
20260510090502 60 222 5.0 9.0 0.00 0.00 0.00 52 1016.4
20260510090006 60 170 5.0 8.0 0.00 0.00 0.00 57 1014.9
20260510085505 60 184 5.0 8.0 0.00 0.00 0.00 57 1015.1
20260510085502 60 197 5.0 8.0 0.00 0.00 0.00 54 1016.6
20260510085006 59 275 4.0 7.0 0.00 0.00 0.00 57 1015.2
20260510085002 59 306 4.0 7.0 0.00 0.00 0.00 55 1016.8
20260510084506 59 273 4.0 5.0 0.00 0.00 0.00 58 1015.4
20260510084503 59 285 4.0 5.0 0.00 0.00 0.00 55 1016.6
20260510084002 58 263 4.0 4.0 0.00 0.00 0.00 57 1016.9
20260510083506 58 273 5.0 8.0 0.00 0.00 0.00 59 1015.5
20260510083502 58 279 5.0 8.0 0.00 0.00 0.00 57 1016.9
20260510083006 59 262 6.0 10.0 0.00 0.00 0.00 58 1015.6
20260510082506 59 276 7.0 10.0 0.00 0.00 0.00 57 1015.3
20260510082006 60 288 6.0 10.0 0.00 0.00 0.00 59 1015.4
20260510082002 60 287 7.0 9.0 0.00 0.00 0.00 57 1017.0
20260510081506 59 241 5.0 8.0 0.00 0.00 0.00 59 1015.4
20260510081006 59 186 3.0 5.0 0.00 0.00 0.00 58 1015.6
20260510081002 59 234 5.0 7.0 0.00 0.00 0.00 56 1017.2
20260510080506 59 216 3.0 6.0 0.00 0.00 0.00 60 1015.6
20260510080503 58 239 4.0 7.0 0.00 0.00 0.00 57 1017.3
20260510080008 58 274 5.0 8.0 0.00 0.00 0.00 56 1017.4
20260510075506 59 241 6.0 8.0 0.00 0.00 0.00 61 1015.7
20260510075503 58 267 6.0 8.0 0.00 0.00 0.00 58 1017.5
20260510075006 58 227 6.0 8.0 0.00 0.00 0.00 62 1015.7
20260510075002 58 218 5.0 8.0 0.00 0.00 0.00 59 1017.6
20260510074506 58 225 4.0 8.0 0.00 0.00 0.00 63 1015.6
20260510074502 58 212 4.0 8.0 0.00 0.00 0.00 60 1017.7
20260510074006 58 198 5.0 11.0 0.00 0.00 0.00 62 1015.7
20260510073506 58 196 6.0 11.0 0.00 0.00 0.00 62 1015.6
20260510073503 57 194 5.0 11.0 0.00 0.00 0.00 58 1017.5
20260510073006 58 200 5.0 8.0 0.00 0.00 0.00 64 1015.6
20260510073002 57 192 4.0 8.0 0.00 0.00 0.00 60 1017.3
20260510072506 57 200 5.0 7.0 0.00 0.00 0.00 64 1015.8
20260510072502 57 212 4.0 6.0 0.00 0.00 0.00 62 1017.5
20260510072006 57 208 4.0 7.0 0.00 0.00 0.00 64 1015.6
20260510072002 56 206 4.0 6.0 0.00 0.00 0.00 61 1017.3
20260510071506 57 209 5.0 6.0 0.00 0.00 0.00 63 1015.7
20260510071503 56 197 4.0 5.0 0.00 0.00 0.00 58 1017.5
20260510071006 57 227 5.0 6.0 0.00 0.00 0.00 65 1015.7
20260510071003 56 218 5.0 5.0 0.00 0.00 0.00 60 1017.4
20260510070506 57 237 4.0 6.0 0.00 0.00 0.00 67 1015.7
20260510070502 56 234 4.0 5.0 0.00 0.00 0.00 65 1017.4
20260510070009 55 198 5.0 7.0 0.00 0.00 0.00 65 1017.5
20260510065506 56 219 5.0 7.0 0.00 0.00 0.00 67 1015.5
20260510065503 55 219 5.0 7.0 0.00 0.00 0.00 64 1017.6
20260510065002 55 238 4.0 5.0 0.00 0.00 0.00 66 1017.5
20260510064506 56 222 5.0 7.0 0.00 0.00 0.00 68 1015.6
20260510064006 55 227 5.0 5.0 0.00 0.00 0.00 70 1015.6
20260510064003 55 247 4.0 5.0 0.00 0.00 0.00 69 1017.8
20260510063503 54 229 4.0 5.0 0.00 0.00 0.00 72 1017.9
20260510063005 55 220 4.0 5.0 0.00 0.00 0.00 76 1015.9
20260510063002 54 205 3.0 4.0 0.00 0.00 0.00 76 1017.8
20260510062506 54 228 4.0 5.0 0.00 0.00 0.00 79 1015.7
20260510062502 53 202 3.0 4.0 0.00 0.00 0.00 82 1017.9
20260510062006 54 237 4.0 5.0 0.00 0.00 0.00 82 1015.7
20260510062002 53 211 3.0 4.0 0.00 0.00 0.00 88 1017.7
20260510061506 54 268 4.0 5.0 0.00 0.00 0.00 85 1015.8
20260510061503 53 224 3.0 4.0 0.00 0.00 0.00 94 1017.7
20260510061006 54 255 3.0 5.0 0.00 0.00 0.00 88 1015.9
20260510061002 52 222 2.0 4.0 0.00 0.00 0.00 97 1018.1
20260510060505 53 226 2.0 2.0 0.00 0.00 0.00 92 1016.1
20260510060503 52 212 2.0 2.0 0.00 0.00 0.00 99 1017.8
20260510060008 51 203 2.0 2.0 0.00 0.00 0.00 99 1018.0
20260510060006 53 224 2.0 3.0 0.00 0.00 0.00 92 1016.0
20260510055503 51 229 2.0 2.0 0.00 0.00 0.00 99 1018.0
20260510055006 53 241 2.0 3.0 0.00 0.00 0.00 94 1016.0
20260510054506 53 236 1.0 3.0 0.00 0.00 0.00 96 1016.1
20260510054502 50 226 1.0 2.0 0.00 0.00 0.00 99 1018.1
20260510054003 49 212 0.0 2.0 0.00 0.00 0.00 99 1017.9
20260510053506 52 140 0.0 2.0 0.00 0.00 0.00 98 1015.9
20260510053503 49 155 0.0 2.0 0.00 0.00 0.00 99 1017.9
20260510053006 50 161 1.0 2.0 0.00 0.00 0.00 99 1015.6
20260510053002 48 168 1.0 2.0 0.00 0.00 0.00 99 1018.1
20260510052506 48 182 2.0 2.0 0.00 0.00 0.00 99 1015.9
20260510052005 47 194 2.0 2.0 0.00 0.00 0.00 99 1016.0
20260510052003 47 196 1.0 2.0 0.00 0.00 0.00 99 1018.1
20260510051506 46 202 2.0 2.0 0.00 0.00 0.00 97 1016.2
20260510051005 46 223 2.0 2.0 0.00 0.00 0.00 97 1016.0
20260510050506 45 229 1.0 3.0 0.00 0.00 0.00 97 1015.9
20260510050502 45 202 2.0 2.0 0.00 0.00 0.00 97 1018.1
20260510050006 44 201 0.0 3.0 0.00 0.00 0.00 98 1016.0
20260510045503 44 220 1.0 2.0 0.00 0.00 0.00 98 1018.3
20260510045006 43 0 0.0 0.0 0.00 0.00 0.00 99 1016.1
20260510045002 43 207 0.0 2.0 0.00 0.00 0.00 98 1018.3
20260510044506 42 0 0.0 0.0 0.00 0.00 0.00 99 1016.1
20260510044503 43 192 0.0 1.0 0.00 0.00 0.00 98 1018.3
20260510044006 42 0 0.0 0.0 0.00 0.00 0.00 99 1016.0
20260510044003 42 181 0.0 1.0 0.00 0.00 0.00 99 1018.5
20260510043506 41 0 0.0 0.0 0.00 0.00 0.00 99 1016.2
20260510043006 41 0 0.0 0.0 0.00 0.00 0.00 99 1016.3
20260510042506 40 0 0.0 0.0 0.00 0.00 0.00 99 1016.1
20260510042503 40 181 0.0 1.0 0.00 0.00 0.00 99 1018.5
20260510042007 39 0 0.0 0.0 0.00 0.00 0.00 99 1016.2
20260510042003 39 181 0.0 1.0 0.00 0.00 0.00 99 1018.4
20260510041506 39 0 0.0 0.0 0.00 0.00 0.00 99 1016.2
20260510041502 38 0 0.0 0.0 0.00 0.00 0.00 99 1018.6
20260510041006 38 0 0.0 0.0 0.00 0.00 0.00 99 1016.2
20260510041003 37 0 0.0 0.0 0.00 0.00 0.00 99 1018.7
20260510040506 38 0 0.0 0.0 0.00 0.00 0.00 99 1016.2
20260510040503 37 0 0.0 0.0 0.00 0.00 0.00 97 1018.8
20260510040011 37 0 0.0 0.0 0.00 0.00 0.00 97 1018.6
20260510040006 38 0 0.0 0.0 0.00 0.00 0.00 99 1016.0
20260510035505 38 0 0.0 0.0 0.00 0.00 0.00 99 1016.2
20260510035502 37 0 0.0 0.0 0.00 0.00 0.00 97 1018.7
20260510035006 38 0 0.0 0.0 0.00 0.00 0.00 99 1016.0
20260510034506 38 0 0.0 0.0 0.00 0.00 0.00 99 1016.0
20260510034503 37 0 0.0 0.0 0.00 0.00 0.00 97 1018.7
20260510034005 37 0 0.0 0.0 0.00 0.00 0.00 98 1016.1
20260510034002 37 0 0.0 0.0 0.00 0.00 0.00 97 1018.8
20260510033506 37 0 0.0 0.0 0.00 0.00 0.00 98 1016.2
20260510033006 37 0 0.0 0.0 0.00 0.00 0.00 98 1016.0
20260510033003 37 0 0.0 0.0 0.00 0.00 0.00 97 1018.6
20260510032505 38 0 0.0 0.0 0.00 0.00 0.00 98 1016.0
20260510032502 37 0 0.0 0.0 0.00 0.00 0.00 97 1018.6
20260510032006 38 0 0.0 0.0 0.00 0.00 0.00 98 1016.0
20260510032002 37 0 0.0 0.0 0.00 0.00 0.00 97 1018.6
20260510031506 38 0 0.0 0.0 0.00 0.00 0.00 98 1016.2
20260510031006 38 0 0.0 0.0 0.00 0.00 0.00 98 1016.2
20260510031003 37 0 0.0 0.0 0.00 0.00 0.00 97 1018.8
20260510030009 37 0 0.0 0.0 0.00 0.00 0.00 97 1018.8
20260510030006 38 0 0.0 0.0 0.00 0.00 0.00 98 1016.2
20260510025502 37 0 0.0 0.0 0.00 0.00 0.00 99 1018.8
20260510025006 39 0 0.0 0.0 0.00 0.00 0.00 98 1016.2
20260510025003 38 0 0.0 0.0 0.00 0.00 0.00 99 1018.9
20260510024506 39 0 0.0 0.0 0.00 0.00 0.00 97 1016.2
20260510024502 38 0 0.0 0.0 0.00 0.00 0.00 99 1018.9
20260510024006 39 0 0.0 0.0 0.00 0.00 0.00 97 1016.2
20260510024003 38 0 0.0 0.0 0.00 0.00 0.00 99 1018.8
20260510023506 40 0 0.0 0.0 0.00 0.00 0.00 97 1016.5
20260510023502 38 0 0.0 0.0 0.00 0.00 0.00 99 1019.1
20260510023003 38 0 0.0 0.0 0.00 0.00 0.00 99 1019.0
20260510022506 40 0 0.0 0.0 0.00 0.00 0.00 97 1016.4
20260510022503 38 0 0.0 0.0 0.00 0.00 0.00 99 1019.1
20260510022006 40 0 0.0 0.0 0.00 0.00 0.00 97 1016.4
20260510022002 38 0 0.0 0.0 0.00 0.00 0.00 99 1019.1
20260510021506 39 0 0.0 0.0 0.00 0.00 0.00 97 1016.5
20260510021503 38 0 0.0 0.0 0.00 0.00 0.00 99 1019.0
20260510020506 39 0 0.0 0.0 0.00 0.00 0.00 96 1016.5
20260510020502 38 0 0.0 0.0 0.00 0.00 0.00 99 1018.9
20260510020009 38 0 0.0 0.0 0.00 0.00 0.00 99 1019.1
20260510020006 39 0 0.0 0.0 0.00 0.00 0.00 96 1016.6
20260510015506 39 0 0.0 0.0 0.00 0.00 0.00 96 1016.6
20260510015502 38 0 0.0 0.0 0.00 0.00 0.00 99 1019.2
20260510015006 39 0 0.0 0.0 0.00 0.00 0.00 96 1016.5
20260510014505 39 0 0.0 0.0 0.00 0.00 0.00 96 1016.4
20260510014503 38 0 0.0 0.0 0.00 0.00 0.00 99 1018.9
20260510014006 40 0 0.0 0.0 0.00 0.00 0.00 96 1016.6
20260510014002 38 0 0.0 0.0 0.00 0.00 0.00 99 1018.9
20260510013506 40 0 0.0 0.0 0.00 0.00 0.00 96 1016.4
20260510013502 38 0 0.0 0.0 0.00 0.00 0.00 99 1018.9
20260510013003 38 0 0.0 0.0 0.00 0.00 0.00 99 1019.0
20260510012506 40 0 0.0 0.0 0.00 0.00 0.00 96 1016.3
20260510012502 38 0 0.0 0.0 0.00 0.00 0.00 99 1019.0
20260510012006 40 0 0.0 0.0 0.00 0.00 0.00 96 1016.4
20260510012003 38 0 0.0 0.0 0.00 0.00 0.00 99 1019.0
20260510011506 40 0 0.0 0.0 0.00 0.00 0.00 95 1016.4
20260510011005 40 0 0.0 0.0 0.00 0.00 0.00 95 1016.4
20260510011002 39 0 0.0 0.0 0.00 0.00 0.00 99 1018.9
20260510010506 40 0 0.0 0.0 0.00 0.00 0.00 95 1016.4
20260510010503 39 0 0.0 0.0 0.00 0.00 0.00 99 1018.9
20260510010009 39 0 0.0 0.0 0.00 0.00 0.00 99 1019.0
20260510005506 40 0 0.0 0.0 0.00 0.00 0.00 96 1016.5
20260510005503 39 0 0.0 0.0 0.00 0.00 0.00 98 1019.2
20260510005006 41 0 0.0 0.0 0.00 0.00 0.00 96 1016.7
20260510005002 40 0 0.0 0.0 0.00 0.00 0.00 98 1019.2
20260510004506 41 0 0.0 0.0 0.00 0.00 0.00 95 1016.5
20260510004502 40 0 0.0 0.0 0.00 0.00 0.00 98 1019.0
20260510004003 40 0 0.0 0.0 0.00 0.00 0.00 98 1019.1
20260510003505 42 0 0.0 0.0 0.00 0.00 0.00 95 1016.4
20260510003503 40 0 0.0 0.0 0.00 0.00 0.00 98 1019.1
20260510003006 42 0 0.0 0.0 0.00 0.00 0.00 95 1016.5
20260510003003 40 0 0.0 0.0 0.00 0.00 0.00 98 1018.9
20260510002506 42 0 0.0 0.0 0.00 0.00 0.00 94 1016.5
20260510002503 41 0 0.0 0.0 0.00 0.00 0.00 98 1019.1
20260510001506 42 0 0.0 0.0 0.00 0.00 0.00 94 1016.7
20260510001502 41 0 0.0 0.0 0.00 0.00 0.00 97 1019.5
20260510001006 42 0 0.0 0.0 0.00 0.00 0.00 94 1016.8
20260510001002 41 0 0.0 0.0 0.00 0.00 0.00 97 1019.1
20260510000505 42 0 0.0 0.0 0.00 0.00 0.00 94 1017.0
20260510000502 41 0 0.0 0.0 0.00 0.00 0.00 97 1019.3
20260510000009 42 0 0.0 0.0 0.00 0.00 0.00 97 1019.1
20260510000006 42 0 0.0 0.0 0.00 0.00 0.00 94 1016.8
20260509235506 42 0 0.0 0.0 0.00 0.00 0.00 94 1017.0
20260509235503 42 0 0.0 0.0 0.00 0.00 0.00 97 1019.3
20260509235006 43 0 0.0 0.0 0.00 0.00 0.00 94 1017.0
20260509235002 42 0 0.0 0.0 0.00 0.00 0.00 96 1019.5
20260509234506 43 0 0.0 0.0 0.00 0.00 0.00 93 1017.1
20260509234503 42 0 0.0 0.0 0.00 0.00 0.00 96 1019.2
20260509234006 43 0 0.0 0.0 0.00 0.00 0.00 93 1017.0
20260509234003 42 0 0.0 0.0 0.00 0.00 0.00 96 1019.5
20260509233506 43 0 0.0 0.0 0.00 0.00 0.00 93 1016.9
20260509233503 42 0 0.0 0.0 0.00 0.00 0.00 96 1019.3
20260509233006 43 0 0.0 0.0 0.00 0.00 0.00 93 1016.9
20260509232505 43 0 0.0 0.0 0.00 0.00 0.00 93 1016.9
20260509232006 43 0 0.0 0.0 0.00 0.00 0.00 93 1016.9
20260509231506 43 0 0.0 0.0 0.00 0.00 0.00 93 1017.2
20260509231503 42 0 0.0 0.0 0.00 0.00 0.00 96 1019.3
20260509231005 43 0 0.0 0.0 0.00 0.00 0.00 93 1017.0
20260509231003 43 0 0.0 0.0 0.00 0.00 0.00 95 1019.3
20260509230009 43 181 0.0 1.0 0.00 0.00 0.00 95 1019.6
20260509230006 44 0 0.0 0.0 0.00 0.00 0.00 93 1017.1
20260509225505 44 0 0.0 0.0 0.00 0.00 0.00 92 1017.1
20260509225003 43 181 0.0 1.0 0.00 0.00 0.00 95 1019.7
20260509224506 43 0 0.0 0.0 0.00 0.00 0.00 92 1017.1
20260509224002 43 0 0.0 0.0 0.00 0.00 0.00 94 1019.4
20260509223506 44 0 0.0 0.0 0.00 0.00 0.00 92 1017.2
20260509223503 43 0 0.0 0.0 0.00 0.00 0.00 94 1019.5
20260509223006 44 0 0.0 0.0 0.00 0.00 0.00 92 1017.2
20260509222505 44 0 0.0 0.0 0.00 0.00 0.00 92 1017.3
20260509222503 44 224 1.0 2.0 0.00 0.00 0.00 94 1019.7
20260509222006 45 0 0.0 0.0 0.00 0.00 0.00 92 1017.3
20260509222003 44 203 1.0 2.0 0.00 0.00 0.00 94 1019.6
20260509221506 44 0 0.0 0.0 0.00 0.00 0.00 92 1017.3
20260509221502 44 201 1.0 2.0 0.00 0.00 0.00 94 1019.8
20260509221002 44 225 1.0 1.0 0.00 0.00 0.00 94 1019.8
20260509220502 44 217 1.0 2.0 0.00 0.00 0.00 93 1019.8
20260509220010 43 214 1.0 2.0 0.00 0.00 0.00 93 1019.9
20260509220006 44 0 0.0 0.0 0.00 0.00 0.00 92 1017.3
20260509215506 44 0 0.0 0.0 0.00 0.00 0.00 90 1017.4
20260509215502 43 219 1.0 2.0 0.00 0.00 0.00 92 1019.6
20260509215006 44 0 0.0 0.0 0.00 0.00 0.00 90 1017.3
20260509215003 43 225 0.0 2.0 0.00 0.00 0.00 92 1019.9
20260509214505 44 0 0.0 0.0 0.00 0.00 0.00 90 1017.3
20260509214503 44 225 0.0 1.0 0.00 0.00 0.00 92 1019.6
20260509214006 45 0 0.0 0.0 0.00 0.00 0.00 89 1017.4
20260509213506 45 0 0.0 0.0 0.00 0.00 0.00 89 1017.5
20260509213503 44 0 0.0 0.0 0.00 0.00 0.00 92 1019.7
20260509213006 45 0 0.0 0.0 0.00 0.00 0.00 89 1017.3
20260509213003 44 169 0.0 1.0 0.00 0.00 0.00 92 1019.7
20260509212506 45 0 0.0 0.0 0.00 0.00 0.00 88 1017.5
20260509212003 44 0 0.0 0.0 0.00 0.00 0.00 91 1019.8
20260509211506 45 0 0.0 0.0 0.00 0.00 0.00 87 1017.4
20260509211502 44 0 0.0 0.0 0.00 0.00 0.00 91 1019.7
20260509211006 45 90 0.0 2.0 0.00 0.00 0.00 87 1017.4
20260509210506 45 90 0.0 2.0 0.00 0.00 0.00 87 1017.5
20260509210008 44 90 0.0 2.0 0.00 0.00 0.00 89 1019.8
20260509210005 45 90 0.0 2.0 0.00 0.00 0.00 86 1017.4
20260509205506 45 0 0.0 0.0 0.00 0.00 0.00 86 1017.5
20260509205503 44 0 0.0 0.0 0.00 0.00 0.00 88 1019.7
20260509205006 45 0 0.0 0.0 0.00 0.00 0.00 85 1017.5
20260509204505 45 0 0.0 0.0 0.00 0.00 0.00 84 1017.5
20260509204503 44 270 0.0 1.0 0.00 0.00 0.00 87 1019.9
20260509204006 45 0 0.0 0.0 0.00 0.00 0.00 84 1017.5
20260509203506 46 0 0.0 0.0 0.00 0.00 0.00 83 1017.5
20260509203502 45 0 0.0 0.0 0.00 0.00 0.00 84 1019.8
20260509203003 45 0 0.0 0.0 0.00 0.00 0.00 84 1019.5
20260509202506 46 181 1.0 2.0 0.00 0.00 0.00 82 1017.4
20260509202503 45 160 0.0 2.0 0.00 0.00 0.00 83 1019.6
20260509202006 46 181 1.0 2.0 0.00 0.00 0.00 82 1017.4
20260509201503 46 157 0.0 1.0 0.00 0.00 0.00 82 1019.5
20260509201006 47 0 0.0 0.0 0.00 0.00 0.00 81 1017.4
20260509201002 46 135 0.0 1.0 0.00 0.00 0.00 82 1019.8
20260509200506 47 0 0.0 0.0 0.00 0.00 0.00 80 1017.4
20260509200503 46 0 0.0 0.0 0.00 0.00 0.00 81 1019.6
20260509200008 47 0 0.0 0.0 0.00 0.00 0.00 80 1019.6
20260509200006 48 0 0.0 0.0 0.00 0.00 0.00 79 1017.5
20260509195506 48 0 0.0 0.0 0.00 0.00 0.00 79 1017.5
20260509195503 47 0 0.0 0.0 0.00 0.00 0.00 79 1019.5
20260509195006 49 0 0.0 0.0 0.00 0.00 0.00 77 1017.5
20260509195002 47 0 0.0 0.0 0.00 0.00 0.00 79 1019.8
20260509194506 49 0 0.0 0.0 0.00 0.00 0.00 76 1017.4
20260509194503 48 0 0.0 0.0 0.00 0.00 0.00 78 1019.6
20260509194006 49 181 0.0 1.0 0.00 0.00 0.00 76 1017.5
20260509194003 48 181 0.0 1.0 0.00 0.00 0.00 76 1019.6
20260509193506 50 181 0.0 1.0 0.00 0.00 0.00 76 1017.6
20260509193502 49 181 0.0 1.0 0.00 0.00 0.00 76 1019.7
20260509193006 50 211 1.0 2.0 0.00 0.00 0.00 75 1017.4
20260509193003 49 0 0.0 0.0 0.00 0.00 0.00 76 1019.6
20260509192505 51 222 1.0 2.0 0.00 0.00 0.00 75 1017.6
20260509192502 50 200 0.0 1.0 0.00 0.00 0.00 75 1019.7
20260509192006 51 210 2.0 3.0 0.00 0.00 0.00 75 1017.5
20260509191506 51 208 3.0 3.0 0.00 0.00 0.00 74 1017.5
20260509191503 51 205 2.0 3.0 0.00 0.00 0.00 74 1019.5
20260509191005 51 216 2.0 3.0 0.00 0.00 0.00 74 1017.5
20260509191003 51 212 2.0 3.0 0.00 0.00 0.00 73 1019.5
20260509190502 51 197 2.0 2.0 0.00 0.00 0.00 73 1019.4
20260509190009 52 184 3.0 5.0 0.00 0.00 0.00 73 1019.4
20260509190006 52 192 3.0 4.0 0.00 0.00 0.00 72 1017.4
20260509185506 52 173 3.0 5.0 0.00 0.00 0.00 72 1017.2
20260509185502 52 172 3.0 5.0 0.00 0.00 0.00 71 1019.4
20260509185006 53 174 3.0 5.0 0.00 0.00 0.00 70 1017.4
20260509185003 52 168 2.0 5.0 0.00 0.00 0.00 69 1019.2
20260509184506 53 205 2.0 2.0 0.00 0.00 0.00 69 1017.3
20260509184006 53 225 2.0 2.0 0.00 0.00 0.00 68 1017.3
20260509184002 53 221 1.0 2.0 0.00 0.00 0.00 67 1019.3
20260509183506 54 225 2.0 2.0 0.00 0.00 0.00 66 1017.3
20260509183503 53 225 1.0 2.0 0.00 0.00 0.00 66 1019.2
20260509183005 54 225 1.0 2.0 0.00 0.00 0.00 65 1017.2
20260509183003 54 225 0.0 1.0 0.00 0.00 0.00 64 1019.2
20260509182505 55 223 2.0 2.0 0.00 0.00 0.00 64 1017.1
20260509182502 54 202 1.0 2.0 0.00 0.00 0.00 64 1019.2
20260509182003 55 195 1.0 2.0 0.00 0.00 0.00 63 1019.2
20260509181506 56 214 2.0 3.0 0.00 0.00 0.00 64 1017.2
20260509181502 55 186 1.0 2.0 0.00 0.00 0.00 63 1019.3
20260509181005 56 221 2.0 3.0 0.00 0.00 0.00 63 1017.3
20260509180506 57 205 2.0 2.0 0.00 0.00 0.00 60 1017.1
20260509180503 56 184 2.0 2.0 0.00 0.00 0.00 61 1019.1
20260509180008 56 185 1.0 2.0 0.00 0.00 0.00 61 1019.2
20260509180006 57 192 2.0 2.0 0.00 0.00 0.00 60 1017.2
20260509175506 58 205 1.0 2.0 0.00 0.00 0.00 59 1017.1
20260509175503 56 184 0.0 2.0 0.00 0.00 0.00 60 1019.3
20260509175006 58 234 2.0 3.0 0.00 0.00 0.00 59 1017.1
20260509174505 59 257 2.0 3.0 0.00 0.00 0.00 58 1017.1
20260509174503 56 245 2.0 2.0 0.00 0.00 0.00 60 1019.1
20260509174006 59 268 3.0 4.0 0.00 0.00 0.00 56 1017.0
20260509174003 57 259 3.0 4.0 0.00 0.00 0.00 58 1019.3
20260509173502 57 266 3.0 4.0 0.00 0.00 0.00 58 1019.0
20260509173005 60 265 3.0 3.0 0.00 0.00 0.00 55 1017.0
20260509173003 57 279 2.0 3.0 0.00 0.00 0.00 56 1019.2
20260509172506 60 258 3.0 4.0 0.00 0.00 0.00 54 1017.1
20260509172502 58 277 3.0 4.0 0.00 0.00 0.00 55 1018.9
20260509172006 60 266 3.0 4.0 0.00 0.00 0.00 54 1017.1
20260509172002 58 281 3.0 4.0 0.00 0.00 0.00 55 1019.1
20260509171503 58 278 2.0 4.0 0.00 0.00 0.00 53 1019.0
20260509171005 61 268 2.0 3.0 0.00 0.00 0.00 52 1016.8
20260509171003 59 263 2.0 3.0 0.00 0.00 0.00 52 1018.7
20260509170506 62 257 2.0 3.0 0.00 0.00 0.00 52 1016.9
20260509170502 59 256 2.0 3.0 0.00 0.00 0.00 49 1019.0
20260509170008 60 261 2.0 2.0 0.00 0.00 0.00 50 1018.9
20260509165506 62 278 3.0 4.0 0.00 0.00 0.00 52 1017.0
20260509165502 61 274 2.0 4.0 0.00 0.00 0.00 51 1018.6
20260509165006 61 284 3.0 4.0 0.00 0.00 0.00 52 1017.0
20260509165003 61 280 2.0 4.0 0.00 0.00 0.00 49 1018.9
20260509164505 61 288 2.0 3.0 0.00 0.00 0.00 53 1017.0
20260509164503 61 299 2.0 4.0 0.00 0.00 0.00 49 1018.9
20260509164006 60 314 2.0 3.0 0.00 0.00 0.00 54 1017.1
20260509164002 61 321 2.0 4.0 0.00 0.00 0.00 51 1018.8
20260509163506 60 194 2.0 4.0 0.00 0.00 0.00 54 1017.1
20260509163502 60 173 2.0 4.0 0.00 0.00 0.00 52 1018.9
20260509163005 60 197 2.0 4.0 0.00 0.00 0.00 54 1017.1
20260509163003 60 174 2.0 4.0 0.00 0.00 0.00 50 1019.1
20260509162506 60 200 2.0 4.0 0.00 0.00 0.00 56 1017.0
20260509162006 59 148 3.0 4.0 0.00 0.00 0.00 56 1017.1
20260509162002 61 138 3.0 4.0 0.00 0.00 0.00 53 1018.9
20260509161505 59 135 2.0 4.0 0.00 0.00 0.00 57 1017.1
20260509161503 60 133 3.0 4.0 0.00 0.00 0.00 54 1019.1
20260509161006 59 144 3.0 5.0 0.00 0.00 0.00 57 1017.1
20260509161003 60 137 2.0 4.0 0.00 0.00 0.00 54 1019.1